Погода в Болошневе

Россия / Рязанская область     54°29′45″N   40°01′34″E
темп.,
°C
ветер,
м/с
пор.,
м/с
влажн.,
%
обл.,
%
осадки,
мм/ч
давл.,
гПа
погр.,
м
1 июля, пт
пт100:00+15ссз496624 0.0 1015174
03:00+11ссз48790 0.0 1015134
06:00+13с511786 0.0 1014391
09:00+15ссв710490 0.0 10161298
12:00+18ссв79385 0.0 10172053
15:00+18св8114498 0.0 10172564
18:00+15св712555 0.0 10191894
21:00+10всв33703 0.0 102131
2 июля, сб
сб200:00+9ссз35760 0.0 102173
03:00+8с410820 0.0 1021174
06:00+11ссз411765 0.0 1021298
09:00+18с69520 0.0 1021994
12:00+22с68380 0.0 10202056
15:00+24с68385 0.0 10182302
18:00+22ссз58520 0.0 1017493
21:00+17ссз48662 0.0 1017124
3 июля, вс
вс300:00+17сз366632 0.0 1017109
03:00+15сз367564 0.0 101677
06:00+16сз377825 0.0 1015167
09:00+22ссз46630 0.0 1015560
12:00+27с57430 0.0 10142363
15:00+28с67417 0.0 10132552
18:00+26с48518 0.0 1013338
21:00+19вюв34690 0.0 101654
4 июля, пн
пн400:00+16в22755 0.0 101611
03:00+14св11845 0.0 101711
06:00+16с11775 0.0 101863
09:00+21ссв22605 0.0 1018553
12:00+25ссв134524 0.0 10181849
15:00+27з234016 0.0 10172306
18:00+25з465826 0.0 1016338
21:00+19зюз35725 0.0 101761
5 июля, вт
вт500:00+18з34726 0.0 101857
03:00+16з347667 0.0 101855
06:00+19зюз377399 0.0 1018157
09:00+24зюз456195 0.0 1018461
12:00+27юз444785 0.0 10171361
15:00+28зюз444693 0.0 10171939
18:00+26юз366085 0.0 1016362
21:00+21юз4778100 0.0 1016110